Flag for Germany Weather past 2 weeks in Landsberg am Lech, Bavaria, Germany

Now
57 °F

Fog.


Feels Like: 57 °F
Forecast: 61 / 70 °F
Wind: 1 mph from East

Location: Landsberg

Current Time: Aug 2, 2014 at 7:28:36 AM

Latest Report: Aug 2, 2014 at 6:20 AM


Visibility: N/A

Pressure: 29.83 "Hg

Humidity: 94%

Dew point: 55 °F

Location of Landsberg am LechLocation

Historic Weather in Landsberg am Lech — Graph

°F

Landsberg am Lech temperature yesterday

Maximum temperature yesterday: 73 °F (at 4:20 PM)
Minimum temperature yesterday: 54 °F (at 4:20 AM)
Average temperature yesterday: 64 °F

Past Weeks' High & Low Weather Summary

 TemperatureHumidityPressure
High88 °F (Jul 19, 4:20 PM)100% (Jul 22, 1:20 AM)30.18 "Hg (Jul 22, 1:20 AM)
Low54 °F (Jul 24, 5:20 AM)27% (Jul 19, 5:20 PM)29.77 "Hg (Jul 29, 5:20 PM)
Average66 °F77%29.94 "Hg
* Reported Jul 18 6:20 AM — Aug 2 6:20 AM, Landsberg am Lech, Weather by CustomWeather, © 2014

Note: Actual official high and low records may vary slightly from our data, if they occured in-between our weather recording intervals... More about our weather records

Advertising

Landsberg am Lech weather history for previous 24 hours

 ConditionsComfort  
Time TempWeatherWind HumidityBarometerVisibility
6:20 AM
Aug 2
57 °FFog.1 mph94%29.83 "HgN/A
5:20 AM57 °FFog.3 mph94%29.83 "Hg4 mi
4:20 AM59 °FFog.3 mph94%29.83 "Hg4 mi
3:20 AM59 °FFog.3 mph94%29.86 "Hg5 mi
2:20 AM59 °FFog.No wind94%29.86 "Hg5 mi
1:20 AM61 °FPassing clouds.1 mph88%29.86 "HgN/A
12:20 AM63 °FPassing clouds.3 mph88%29.86 "HgN/A
11:20 PM
Aug 1
63 °FPassing clouds.3 mph88%29.89 "HgN/A
10:20 PM66 °FPassing clouds.3 mph83%29.89 "HgN/A
9:20 PM68 °FPartly sunny.3 mph78%29.89 "HgN/A
8:20 PM70 °FPassing clouds.2 mph69%29.86 "HgN/A
7:20 PM72 °FPartly sunny.5 mph65%29.86 "HgN/A
6:20 PM73 °FPartly sunny.5 mph61%29.86 "HgN/A
5:20 PM73 °FPartly sunny.5 mph61%29.89 "HgN/A
4:20 PM73 °FPartly sunny.8 mph61%29.89 "HgN/A
3:20 PM72 °FBroken clouds.8 mph65%29.89 "HgN/A
2:20 PM72 °FPartly sunny.7 mph65%29.89 "HgN/A
1:20 PM70 °FPartly sunny.7 mph64%29.92 "HgN/A
12:20 PM70 °FPartly sunny.7 mph64%29.92 "HgN/A
11:20 AM68 °FBroken clouds.10 mph69%29.92 "HgN/A
10:20 AM66 °FPartly sunny.12 mph73%29.95 "HgN/A
9:20 AM64 °FPartly sunny.10 mph78%29.95 "HgN/A
8:20 AM61 °FPartly sunny.7 mph83%29.95 "HgN/A
7:20 AM57 °FScattered clouds.No wind88%29.95 "HgN/A
Weather by CustomWeather, © 2014

See weather overviewHow to use our weather pages